Location: LDNL
(36.4545°S, 141.6685°E)
Time: 19:23:45
(UTC+10:00)

A-11 Canister half - Pass Details

Date: 05 February 2022
Orbit: 1527 x 1682 km, 47.3° (Epoch: 20 May)

Event Time Altitude Azimuth Distance (km) Brightness Sun altitude
Rises 00:34:33 0° 262° (W) 4,946 12.0 -34.7°
Reaches altitude 10° 00:37:59 10° 255° (WSW) 3,957 11.5 -34.9°
Maximum altitude 00:47:39 45° 184° (S) 2,157 10.0 -35.6°
Drops below altitude 10° 00:57:08 10° 112° (ESE) 3,880 11.1 -36.1°
Sets 01:00:28 0° 106° (ESE) 4,844 11.6 -36.3°
